Preview of NWS' New Version of Forecast
This preview is not operational and should not be used for support decisions.

Regional Weather Roundup (RWR)

Issued by National Weather Service (NWS)

                            
000
ASUS45 KCYS 211710
RWRWY 

WYOMING REGIONAL WEATHER ROUNDUP
NATIONAL WEATHER SERVICE CHEYENNE WY
1100 AM MDT WED AUG 21 2019

NOTE:  "FAIR" INDICATES FEW OR NO CLOUDS BELOW 12,000 FEET
WITH NO SIGNIFICANT WEATHER AND/OR OBSTRUCTIONS TO VISIBILITY.

WYZ001-211800-
YELLOWSTONE NATIONAL PARK
  
CITY           SKY/WX    TMP DP  RH WIND       PRES   REMARKS
LK YELLOWSTONE   N/A     68  37  32 E3        30.35F                  
W YELLOWSTONE  NOT AVBL                                               

$$
WYZ002>013-054>058-071-098>099-211800-
NORTHERN WYOMING
  
CITY           SKY/WX    TMP DP  RH WIND       PRES   REMARKS
JACKSON        FAIR      68  42  38 SE6       30.26F                  
CODY           FAIR      74  52  46 NE7       30.17F                  
GREYBULL       FAIR      77  52  41 E3        30.09F                  
WORLAND        FAIR      76  53  44 NW5       30.11F                  
SHERIDAN       FAIR      83  53  35 VRB6      30.11F                  
BUFFALO        FAIR      73  55  53 SE12      30.20S                  
GILLETTE       FAIR      75  58  55 S15G26    30.18S                  
HULETT         FAIR      72  59  64 CALM      30.20                   
NEWCASTLE      FAIR      72  55  56 SE17G26   30.22R                  

$$
WYZ014>020-022>026-101>103-211800-
CENTRAL WYOMING
  
CITY           SKY/WX    TMP DP  RH WIND       PRES   REMARKS
BIG PINEY      FAIR      72  32  23 SW9       30.29F                  
PINEDALE       FAIR      73  37  27 N3        30.30                   
DUBOIS         FAIR      73  41  31 E5        30.28                   
LANDER         FAIR      78  50  37 E6        30.18F                  
RIVERTON       FAIR      76  52  43 CALM      30.20S                  
CASPER         FAIR      76  50  40 NE8       30.19F                  
DOUGLAS        FAIR      76  52  43 SE21G30   30.20F                  

$$
WYZ021-027>030-104>119-211800-
SOUTHERN WYOMING
  
CITY           SKY/WX    TMP DP  RH WIND       PRES   REMARKS
EVANSTON       FAIR      78  19  11 VRB3      30.28S                  
KEMMERER       FAIR      73  21  14 E3        30.30                   
ROCK SPRINGS   FAIR      75  48  38 VRB5      30.27S                  
DIXON          FAIR      72  27  18 E14       30.28S                  
RAWLINS        FAIR      74  48  39 SE10      30.28S                  
SARATOGA       FAIR      72  43  35 NW6       30.30S                  
LARAMIE        FAIR      71  49  45 SE20      30.33R                  
CHEYENNE       FAIR      73  51  46 S14       30.29F                  
TORRINGTON     FAIR      73  58  59 MISG      30.20F                  
PINE BLUFFS    CLOUDY    72  52  49 E7        30.26S                  

$$